Starlink 2748

operational
NORAD ID: 48694 Int'l Des: 2021-044 Owner: SPXS Country: US Constellation: starlink
LEOCIRCULAR

关于 Starlink 2748

正在加载描述...

实时位置

正在加载3D地球...

即将过境

高度历史

Altitude vs Time

uPlot chart will show altitude changes over time

两行轨道根数

1 48694U 21044BJ 26062.53386368 .00001639 00000-0 67444-4 0 9998
2 48694 53.1590 107.1009 0001320 85.5289 274.5863 15.30199910263371
Epoch: Mar 3, 2026 • Age: 39 hours

当前状态

高度 475.7 km
速度 7.63 km/s
星下点 24.50°N, 118.22°W
发射日期 May 26, 2021
运行时间 4.7 years
类型 internet

技术详情

分类 Payload
质量 260.00 kg
干质量 248.00 kg
总质量 260.00 kg
长度 0.20 m
直径 2.80 m
跨度 9.00 m
形状 Box + pan
制造商 SPXS
平台类型 Starlink
阶段状态 In Orbit
所有者/国家 SPXS/US

大型星座

Loading constellations...